Weather History for KBML - March, 2013

Change the Weather History Date:

Monday, March 18, 2013

  Actual Average Record
Temperature  
Mean Temperature 15 °F -  
Max Temperature 32 °F 32 °F 75 °F (2012)
Min Temperature -2 °F 12 °F -17 °F (2014)
Degree Days  
Heating Degree Days 50    
Moisture  
Dew Point -1 °F    
Average Humidity 47    
Maximum Humidity 79    
Minimum Humidity 20    
Precipitation  
Precipitation 0.00 in - - ()
Sea Level Pressure  
Sea Level Pressure 30.33 in    
Wind  
Wind Speed 2 mph (NNW)    
Max Wind Speed 9 mph    
Max Gust Speed -    
Visibility 10 miles    
Events      
Averages and records for this station are not official NWS values.
T = Trace of Precipitation, MM = Missing Value Source: NWS Daily Summary

Daily Weather History Graph

Daily Weather History Graph

Search for Another Location

Airport or City:

Trip Planner

Search our weather history database for the weather conditions in past years. The results will help you decide how hot, cold, wet, or windy it might be!

Date:

Astronomy

Mar. 18, 2013 Rise Set
Actual Time 6:51 AM EDT 6:54 PM EDT
Civil Twilight 6:22 AM EDT 7:23 PM EDT
Nautical Twilight 5:48 AM EDT 7:58 PM EDT
Astronomical Twilight 5:13 AM EDT 8:32 PM EDT
Moon 10:34 AM EDT (3/18) 1:05 AM EDT (3/18)
Length of Visible Light 13h 01m
Length of Day
12h 03m
Waxing Crescent, 40% of the Moon is Illuminated
Mar 18
Waxing Crescent
Mar 19
First Quarter
Mar 27
Full
Apr 3
Last Quarter
Apr 10
New

Hourly Weather History & Observations

Time (EDT) Temp. Windchill Dew Point Humidity Pressure Visibility Wind Dir Wind Speed Gust Speed Precip Events Conditions
12:52 AM 12.9 °F 5.2 °F -5.1 °F 45% 30.32 in 10.0 mi Variable 4.6 mph - N/A   Clear
1:52 AM 12.9 °F 6.9 °F -5.1 °F 45% 30.34 in 10.0 mi NNW 3.5 mph - N/A   Clear
2:52 AM 5.0 °F - -2.9 °F 70% 30.36 in 10.0 mi Calm Calm - N/A   Clear
3:52 AM 1.9 °F - -4.0 °F 76% 30.35 in 10.0 mi Calm Calm - N/A   Clear
4:52 AM -0.0 °F - -6.0 °F 76% 30.37 in 10.0 mi Calm Calm - N/A   Clear
5:52 AM -2.0 °F - -7.1 °F 79% 30.40 in 10.0 mi Calm Calm - N/A   Clear
6:52 AM -2.9 °F - -8.0 °F 79% 30.42 in 10.0 mi Calm Calm - N/A   Clear
8:52 AM 9.0 °F - -0.0 °F 67% 30.43 in 10.0 mi Calm Calm - N/A   Clear
9:52 AM 18.0 °F 9.8 °F -2.9 °F 40% 30.43 in 10.0 mi Variable 5.8 mph - N/A   Clear
10:52 AM 21.0 °F - -5.1 °F 32% 30.42 in 10.0 mi Calm Calm - N/A   Clear
11:52 AM 24.1 °F 16.0 °F -5.1 °F 28% 30.40 in - Variable 6.9 mph - N/A   Clear
12:52 PM 28.0 °F 21.7 °F -4.0 °F 25% 30.39 in - WNW 5.8 mph - N/A   Unknown
1:52 PM 28.9 °F 20.4 °F -5.1 °F 23% 30.36 in 10.0 mi North 9.2 mph - N/A   Clear
2:52 PM 30.9 °F 24.3 °F -2.0 °F 24% 30.34 in 10.0 mi North 6.9 mph - N/A   Clear
3:52 PM 32.0 °F 28.7 °F -5.1 °F 20% 30.31 in 10.0 mi Variable 3.5 mph - N/A   Clear
4:52 PM 32.0 °F - -2.9 °F 22% 30.30 in 10.0 mi Calm Calm - N/A   Clear
5:52 PM 32.0 °F - -2.9 °F 22% 30.27 in 10.0 mi Calm Calm - N/A   Clear
6:52 PM 28.9 °F - 1.9 °F 32% 30.27 in 10.0 mi Calm Calm - N/A   Clear
7:52 PM 26.1 °F - 9.0 °F 49% 30.26 in 10.0 mi Calm Calm - N/A   Clear
8:52 PM 25.0 °F - 10.0 °F 53% 30.25 in 10.0 mi Calm Calm - N/A   Clear
9:52 PM 24.1 °F - 10.9 °F 57% 30.25 in 10.0 mi Calm Calm - N/A   Clear
10:52 PM 24.1 °F - 10.0 °F 55% 30.23 in 10.0 mi Calm Calm - N/A   Clear
11:52 PM 25.0 °F - 12.0 °F 58% 30.21 in 10.0 mi Calm Calm - N/A   Partly Cloudy